{"data":{"norad_id":58947,"intl_designator":"2024-027S","name":"STARLINK-31116","alt_names":[],"object_type":"PAYLOAD","status":"ACTIVE","operator":null,"country":"US","launch_date":"2024-02-10","launch_site_code":"AFWTR","launch_vehicle":null,"mission":null,"orbit_class":"UNKNOWN","rcs_meters":null,"size_class":null,"mass_kg":null,"dimensions":null,"purposes":["comms"],"wikipedia_slug":null,"has_3d_model":false,"image_url":null,"decayed_at":null,"tle_current":{"epoch":"2026-09-20T21:04:05.671488Z","epoch_age_seconds":123087,"freshness":"FRESH","line1":"1 58947U 24027S   26263.87784342  .00001201  00000+0  50467-4 0  9999","line2":"2 58947  53.1591 121.4936 0001171  71.7873 288.3256 15.31691137147236","mean_motion":15.31691137,"eccentricity":0.0001171,"inclination_deg":53.1591,"raan_deg":121.4936,"arg_perigee_deg":71.7873,"mean_anomaly_deg":288.3256,"bstar":5.0467e-5,"rev_number":14723,"period_min":94.013731960375,"perigee_km":469.9644089049,"apogee_km":471.56842208481,"semimajor_km":6848.9034154949,"source":"CELESTRAK","updated_at":"2026-09-21T09:00:33.999327Z"}}}